EHI
0 0 0 0 0 0 0 0 0 0 0 0 0 0 0 0 0 0 0 0 0 0 0 0 0 0 0 0 0 0 0 0 0 0 0 0 0 0 0 0 0 0 0
0 0 0 0 0 0 0 0 0 0 0 0 0 0 0 0 0 0 0 0 0 0 0 0 0 0 0 0 0 0 0 0 0 0 0 0 0 0 0 0 0 0 0
0 0 0 0 0 0 0 0 0 0 0 0 0 0 0 0 0 0 0 0 0 0 0 0 0 0 0 0 0 0 0 0 0 0 0 0 0 0 0 0 0 0 0
0 0 0 0 0 0 0 0 0 0 0 0 0 0 0 0 0 0 0 0 0 0 0 0 0 0 0 0 0 0 0 0 0 0 0 0 0 0 0 0 0 0 0
0 0 0 0 0 0 0 0 0 0 0 0 0 0 0 0 0 0 0 0 0 0 0 0 0 0 0 0 0 0 0 0 0 0 0 0 0 0 0 0 0 0 0
0 0 0 0 0 0 0 0 0 0 0 0 0 0 0 0 0 0 0 0 0 0 0 0 0 0 0 0 0 0 0 0 0 0 0 0 0 0 0 0 0 0 0
0 0 0 0 0 0 0 0 0 0 0 0 0 0 0 0 0 0 0 0 0 0 0 0 0 0 0 0 0 0 0 0 0 0 0 0 0 0 0 0 0 0 0
0 0 0 0 0 0 0 0 0 0 0 0 0 0 0 0 0 0 0 0 0 0 0 0 0 0 0 0 0 0 0 0 0 0 0 0 0 0 0 0 0 0 0
0 0 0 0 0 0 0 0 0 0 0 0 0 0 0 0 0 0 0 0 0 0 0 0 0 0 0 0 0 0 0 0 0 0 0 0 0 0 0 0 0 0 0
0 0 0 0 0 0 0 0 0 0 0 0 0 0 0 0 0 0 0 0 0 0 0 0 0 0 0 0 0 0 0 0 0 0 0 0 0 0 0 0 0 0 0
0 0 0 0 0 0 0 0 0 0 0 0 0 0 0 0 0 0 0 0 0 0 0 0 0 0 0 0 0 0 0 0 0 0 0 0 0 0 0 0 0 0 0
0 0 0 0 0 0 0 0 0 0 0 0 0 0 0 0 0 0 0 0 0 0 0 0 0 0 0 0 0 0 0 0 0 0 0 0 0 0 0 0 0 0 0
0 0 0 0 0 0 0 0 0 0 0 0 0 0 0 0 0 0 0 0 0 0 0 0 0 0 0 0 0 0 0 0 0 0 0 0 0 0 0 0 0 0 0
0 0 0 0 0 0 0 0 0 0 0 0 0 0 0 0 0 0 0 0 0 0 0 0 0 0 0 0 0 0 0 0 0 0 0 0 0 0 0 0 0 0 0
0 0 0 0 0 0 0 0 0 0 0 0 0 0 0 0 0 0 0 0 0 0 0 0 0 0 0 0 0 0 0 0 0 0 0 0 0 0 0 0 0 0 0
0 0 0 0 0 0 0 0 0 0 0 0 0 0 0 0 0 0 0 0 0 0 0 0 0 0 0 0 0 0 0 0 0 0 0 0 0 0 0 0 0 0 0
0 0 0 0 0 0 0 0 0 0 0 0 0 0 0 0 0 0 0 0 0 0 0 0 0 0 0 0 0 0 0 0 0 0 0 0 0 0 0 0 0 0 0
0 0 0 0 0 0 0 0 0 0 0 0 0 0 0 0 0 0 0 0 0 0 0 0 0 0 0 0 0 0 0 0 0 0 0 0 0 0 0 0 0 0 0
0 0 0 0 0 0 0 0 0 0 0 0 0 0 0 0 0 0 0 0 0 0 0 0 0 0 0 0 0 0 0 0 0 0 0 0 0 0 0 0 0 0 0
0 0 0 0 0 0 0 0 0 0 0 0 0 0 0 0 0 0 0 0 0 0 0 0 0 0 0 0 0 0 0 0 0 0 0 0 0 0 0 0 0 0 0
0 0 0 0 0 0 0 0 0 0 0 0 0 0 0 0 0 0 0 0 0 0 0 0 0 0 0 0 0 0 0 0 0 0 0 0 0 0 0 0 0 0 0
0 0 0 0 0 0 0 0 0 0 0 0 0 0 0 0 0 0 0 0 0 0 0 0 0 0 0 0 0 0 0 0 0 0 0 0 0 0 0 0 0 0 0
0 0 0 0 0 0 0 0 0 0 0 0 0 0 0 0 0 0 0 0 0 0 0 0 0 0 0 0 0 0 0 0 0 0 0 0 0 0 0 0 0 0 0
0 0 0 0 0 0 0 0 0 0 0 0 0 0 0 0 0 0 0 0 0 0 0 0 0 0 0 0 0 0 0 0 0 0 0 0 0 0 0 0 0 0 0
0 0 0 0 0 0 0 0 0 0 0 0 0 0 0 0 0 0 0 0 0 0 0 0 0 0 0 0 0 0 0 0 0 0 0 0 0 0 0 0 0 0 0
0 0 0 0 0 0 0 0 0 0 0 0 0 0 0 0 0 0 0 0 0 0 0 0 0 0 0 0 0 0 0 0 0 0 0 0 0 0 0 0 0 0 0
Wind_Speed
9 9 9 7 5 3 2 3 3 4 5 6 7 7 6 5 4 3 3 3 3 4 3 4 4 5 5 5 5 4 4 5 7 6 4 4 6 7 4 3 3 4 4
10 10 7 5 5 3 2 1 1 3 4 5 5 5 5 5 4 4 4 5 5 5 5 5 5 5 5 6 6 5 4 4 6 8 7 6 6 7 7 5 4 5 4
7 7 5 1 3 1 1 1 1 3 3 4 5 5 5 6 5 6 7 7 7 6 6 6 5 5 6 5 6 7 6 5 4 5 6 5 6 8 9 6 5 4 4
6 9 8 5 2 1 2 3 4 4 5 6 7 7 7 7 8 8 8 8 8 8 7 6 6 6 7 7 5 6 7 6 5 5 5 6 7 9 9 9 7 4 2
7 11 10 8 6 4 4 4 5 6 7 7 8 8 9 8 8 8 9 9 9 9 8 8 9 8 7 7 7 8 9 7 6 6 7 7 8 9 9 8 9 7 1
6 11 11 10 8 7 5 6 7 7 7 7 9 9 9 9 9 9 7 9 9 9 8 8 8 7 5 5 6 7 10 10 10 9 9 9 9 9 8 7 7 7 4
5 9 11 11 9 7 6 7 7 7 7 8 9 10 10 9 8 8 6 7 9 8 8 7 8 9 8 7 4 3 5 5 5 8 10 10 11 11 9 9 7 5 5
4 7 10 12 11 7 5 6 6 6 6 6 8 10 9 9 7 6 3 7 8 7 7 7 8 9 10 10 7 8 7 7 7 8 8 8 9 10 10 7 4 1 3
4 5 9 12 14 12 9 8 6 5 5 5 7 9 9 8 5 3 2 7 6 6 6 7 6 8 11 14 7 7 7 6 2 1 3 5 5 5 9 9 9 7 4
6 6 7 9 12 13 12 11 9 7 6 5 6 7 9 8 4 1 5 4 6 5 5 7 10 9 11 14 9 8 8 8 8 5 2 4 5 6 8 10 10 9 7
8 8 7 8 9 11 12 11 11 9 7 6 6 6 7 7 6 2 5 1 4 3 3 4 7 8 9 11 9 7 7 9 7 6 5 6 7 7 9 9 9 8 8
9 9 8 8 8 10 10 10 10 10 9 8 7 7 7 7 6 5 5 5 3 3 2 4 7 5 5 6 6 8 11 10 5 6 6 7 7 8 8 8 8 6 6
10 9 9 9 7 8 9 10 10 10 10 10 8 6 6 7 7 6 6 5 4 2 4 6 4 1 5 4 1 6 7 6 6 6 6 6 6 7 7 6 7 4 2
11 10 9 9 8 8 6 7 8 10 10 10 10 8 8 8 8 8 6 6 6 5 5 6 5 3 2 2 2 0 5 7 7 7 7 6 6 6 7 8 8 7 6
11 10 10 10 8 8 7 4 5 6 6 7 7 7 8 7 6 5 0 2 1 3 1 5 5 4 3 3 4 4 5 6 6 7 7 7 7 7 7 7 7 7 7
10 10 9 9 9 8 8 7 7 4 8 8 5 3 5 9 12 9 7 6 3 2 5 4 3 2 2 3 4 4 6 7 7 6 7 7 7 7 7 7 7 8 7
11 10 9 9 9 9 8 8 8 7 6 7 8 7 10 14 12 9 7 4 2 3 5 4 3 2 2 2 3 4 5 5 5 6 6 6 6 6 6 7 7 8 8
12 10 9 8 8 9 9 9 9 11 11 9 8 9 13 13 11 10 8 7 7 7 4 4 3 3 2 1 3 4 4 4 4 5 6 6 6 6 6 7 6 8 8
12 10 10 9 9 9 9 9 9 10 10 11 11 10 10 10 9 7 9 8 6 6 5 4 4 3 2 1 1 1 2 3 4 4 5 5 5 5 6 6 6 5 6
12 11 10 10 10 10 10 10 10 10 10 9 11 12 12 11 10 10 9 7 5 5 5 5 4 3 3 2 2 2 1 0 2 3 4 4 4 5 5 6 6 6 6
13 13 13 12 12 11 11 11 11 11 11 11 12 13 15 12 10 11 10 8 6 6 6 5 5 5 5 4 4 4 3 2 1 2 3 4 5 5 5 6 6 6 6
13 13 14 13 12 12 11 11 12 12 13 13 11 13 13 11 9 9 9 9 9 7 7 6 6 5 5 6 6 5 5 4 3 2 2 3 4 4 5 5 6 6 6
14 15 15 14 12 12 12 12 13 13 13 13 12 12 13 11 10 9 9 9 9 9 8 7 7 6 5 5 6 6 6 4 4 3 3 3 3 4 5 5 5 6 6
16 16 16 15 14 14 14 13 13 13 13 13 12 11 12 12 12 11 10 10 10 10 9 8 8 9 9 7 6 7 6 4 4 4 3 4 4 4 4 4 5 6 6
17 17 16 16 15 15 15 15 14 14 13 13 12 11 11 11 12 12 11 10 11 11 11 10 8 10 11 11 10 6 8 7 2 2 4 4 4 4 5 5 4 5 6
17 17 16 16 16 15 15 15 15 15 14 13 13 12 12 12 12 12 11 11 11 11 11 10 12 13 12 11 11 10 12 10 8 4 4 4 5 4 4 5 4 5 6
Wind_Direction
39 52 44 27 11 12 39 96 121 143 152 145 136 134 136 138 141 160 137 127 101 76 55 42 35 23 9 356 352 338 319 305 293 297 304 327 329 323 309 282 258 240 222
61 69 59 15 346 354 45 79 169 171 165 142 136 133 134 128 130 135 121 95 82 73 64 57 48 49 34 14 348 345 334 318 307 314 321 328 329 329 319 291 256 242 228
101 103 108 51 328 350 74 107 98 107 108 110 115 120 119 118 117 104 89 79 75 72 70 70 60 43 25 18 354 353 344 354 354 332 339 346 343 346 334 317 276 251 234
155 148 158 175 190 84 65 76 89 105 111 110 111 112 111 108 101 93 87 83 83 81 77 73 59 40 21 358 5 11 8 14 36 27 18 10 6 360 359 347 333 299 235
179 168 172 177 174 154 132 126 128 125 118 117 120 116 113 107 94 93 97 91 89 89 83 71 61 49 29 2 7 12 13 12 29 33 31 24 17 8 7 352 343 332 305
184 172 174 174 164 153 146 139 134 124 121 125 121 112 102 89 71 65 82 93 88 86 86 89 93 68 79 64 36 25 16 16 16 12 29 21 16 6 358 360 359 0 1
171 171 170 161 149 145 150 139 130 126 127 130 123 109 99 95 90 75 56 92 88 79 73 63 63 57 29 51 94 156 76 44 355 336 23 9 11 6 346 359 21 25 26
157 159 160 152 146 143 143 129 119 116 125 132 126 114 112 113 108 102 89 100 94 89 82 76 68 54 26 358 33 43 44 42 20 16 10 3 12 353 340 334 341 116 110
175 158 160 160 158 160 160 152 139 131 128 132 122 123 125 131 142 151 223 124 116 102 82 57 48 56 16 347 11 27 25 22 126 185 296 294 285 319 345 354 359 355 38
197 175 165 162 164 165 159 158 158 155 142 133 122 129 134 139 152 207 278 163 137 138 127 115 72 40 16 358 5 19 14 359 344 346 326 332 354 17 19 14 7 3 9
193 178 171 157 154 155 156 161 167 167 154 140 129 125 122 126 146 176 308 214 142 146 128 111 78 39 21 4 356 19 349 310 322 347 3 9 12 14 17 24 19 14 12
187 182 171 165 164 154 161 166 170 166 160 158 152 144 131 124 111 111 76 55 28 111 89 73 78 46 30 15 16 350 317 313 360 11 14 15 16 13 15 19 27 37 36
190 186 178 172 165 159 166 167 168 173 175 167 157 152 147 131 117 109 99 80 32 63 75 63 52 281 230 165 81 311 326 8 13 13 14 11 11 13 358 2 8 358 4
197 187 182 173 169 166 175 177 179 180 182 172 165 165 160 158 156 158 158 160 173 178 158 152 187 228 203 124 185 335 47 32 1 5 2 359 354 356 359 359 353 352 355
198 190 187 184 179 177 182 158 192 190 184 175 164 167 171 167 123 69 245 145 85 56 232 194 189 169 147 94 73 47 26 21 11 8 1 354 352 351 352 357 351 345 355
202 198 196 194 181 185 169 151 66 79 113 119 128 153 114 114 123 113 96 88 71 336 263 184 153 125 75 52 33 41 44 28 11 11 9 0 353 352 356 1 2 357 354
210 203 203 199 185 192 186 179 159 121 118 143 154 140 130 137 143 150 151 153 189 262 227 155 140 119 90 70 47 39 42 46 10 10 12 4 355 355 360 356 3 356 349
207 199 205 201 196 193 188 184 174 163 160 158 157 138 138 148 160 172 175 190 190 218 200 152 152 145 118 56 47 40 37 38 22 17 21 9 3 2 3 354 13 9 347
204 197 197 201 199 194 189 186 180 178 166 158 157 149 147 154 166 182 196 229 199 174 168 167 173 170 160 151 82 39 29 38 22 358 27 10 2 3 7 356 1 8 330
201 191 189 199 198 192 189 184 176 173 168 172 177 170 165 180 185 180 202 218 205 174 171 178 181 187 195 210 198 235 241 102 348 353 20 360 1 357 358 350 350 345 349
191 179 187 205 200 192 188 184 178 178 182 188 187 170 171 191 195 186 188 192 204 194 187 190 185 194 209 221 231 221 235 268 291 340 351 350 351 347 340 341 340 338 345
187 178 187 201 197 192 189 187 184 188 192 190 180 159 169 205 204 198 198 196 202 208 202 206 214 207 214 218 224 233 238 236 243 261 310 322 322 327 332 335 338 337 336
187 182 184 196 194 181 186 190 188 188 189 188 187 178 180 209 220 218 216 213 210 210 211 210 225 229 220 225 232 237 241 229 225 239 282 296 301 311 313 327 329 328 339
188 187 186 191 190 185 190 191 188 190 192 192 196 197 191 197 215 220 221 219 215 215 216 216 225 231 229 232 232 228 227 216 209 211 238 285 289 291 298 312 318 336 332
189 189 189 190 192 191 192 196 195 196 200 201 203 206 211 206 208 212 211 213 214 217 221 223 225 229 230 227 226 215 129 122 163 244 199 239 258 272 284 296 309 318 323
191 190 190 190 193 197 197 199 201 201 204 205 206 208 212 212 212 212 209 210 214 217 223 226 227 228 223 220 211 161 145 154 165 199 245 222 226 244 264 279 298 304 315